This is the latest recevied weather packets stored in our database for station/object AB4CZ-1. If no packets are shown the sender has not sent any weather packets the latest 1 day(s).
| Time | Temp. | Humidity | Pressure | Rain* | Wind** | Luminosity | Snow |
|---|---|---|---|---|---|---|---|
| 1778043704 | 21.11° C | 56% | 1013.7 hPa | 0 mm | - | - | - |
| 1778043492 | 21.11° C | 54% | 1013.8 hPa | 0 mm | - | - | - |
| 1778043433 | 21.11° C | 54% | 1013.8 hPa | 0 mm | - | - | - |
| 1778043093 | 21.11° C | 57% | 1013.7 hPa | 0 mm | - | - | - |
| 1778042492 | 21.11° C | 56% | 1014.1 hPa | 0 mm | - | - | - |
| 1778042194 | 21.11° C | 57% | 1014.2 hPa | 0 mm | - | - | - |
| 1778041895 | 21.11° C | 56% | 1014.3 hPa | 0 mm | - | - | - |
| 1778041593 | 21.11° C | 56% | 1014.3 hPa | 0 mm | - | - | - |
| 1778041293 | 21.11° C | 57% | 1014.4 hPa | 0 mm | - | - | - |
| 1778040993 | 21.11° C | 56% | 1014.3 hPa | 0 mm | - | - | - |
| 1778040692 | 21.11° C | 56% | 1014.2 hPa | 0 mm | - | - | - |
| 1778040407 | 21.11° C | 56% | 1014.1 hPa | 0 mm | - | - | - |
| 1778040270 | 21.11° C | 56% | 1014 hPa | 0 mm | - | - | - |
| 1778040103 | 21.11° C | 56% | 1014 hPa | 0 mm | - | - | - |
| 1778039795 | 21.11° C | 55% | 1014 hPa | 0 mm | - | - | - |
| 1778039496 | 21.11° C | 54% | 1014 hPa | 0 mm | - | - | - |
| 1778039005 | 21.11° C | 53% | 1014 hPa | 0 mm | - | - | - |
| 1778038894 | 21.11° C | 53% | 1014 hPa | 0 mm | - | - | - |
| 1778038306 | 21.67° C | 54% | 1014.1 hPa | 0 mm | - | - | - |
| 1778037993 | 21.11° C | 54% | 1014.1 hPa | 0 mm | - | - | - |
| 1778037693 | 21.11° C | 55% | 1014.2 hPa | 0 mm | - | - | - |
| 1778037392 | 21.11° C | 56% | 1014.2 hPa | 0 mm | - | - | - |
| 1778036794 | 20.56° C | 58% | 1014.3 hPa | 0 mm | - | - | - |
| 1778036503 | 20.56° C | 59% | 1014.4 hPa | 0 mm | - | - | - |
| 1778035893 | 20.56° C | 59% | 1014.5 hPa | 0 mm | - | - | - |
* Rain latest hour (hover to see other rain measurements)
** Current wind speed in m/s (hover to see current wind gust speed)